Wind_Speed
19 21 28 27 27 27 27 30 27 30 31 29 25 26 27 30 31 31 32 34 34 36 36 35 34 32 29 27 24 21 17 18 19 20 16 15 15 15 15 17 17 16 14 11 9
26 22 22 28 31 29 29 30 31 29 32 33 32 28 29 29 32 33 33 34 35 37 37 37 36 35 33 30 28 24 19 21 21 22 20 17 17 16 18 19 19 18 15 12 10
29 29 26 24 26 29 30 30 29 29 29 33 36 33 30 29 32 33 34 34 35 37 37 38 38 38 36 34 31 28 22 24 25 24 23 20 19 19 19 21 21 20 17 13 10
37 34 31 31 28 26 25 31 31 31 31 32 34 39 34 30 32 32 34 36 36 37 38 38 39 40 38 37 35 32 30 28 26 26 25 23 21 22 21 25 21 22 20 16 13
47 42 39 35 35 33 31 28 28 33 33 32 35 36 43 35 34 33 33 35 37 37 38 39 40 40 41 41 39 37 34 31 30 28 27 26 24 24 23 26 24 25 22 19 16
54 51 47 43 39 39 38 34 31 28 31 34 34 35 39 39 38 38 36 34 36 39 38 39 40 42 42 41 42 39 38 35 33 31 29 29 28 24 27 30 26 27 24 22 19
62 59 55 52 49 46 43 40 37 35 33 32 35 38 37 36 41 40 43 40 38 38 41 40 40 42 42 43 42 41 42 41 37 35 33 32 31 24 33 30 26 29 26 25 22
66 66 63 60 56 52 49 46 44 42 40 37 35 34 38 36 37 38 40 40 42 42 41 42 43 43 42 43 44 43 43 44 40 38 37 37 29 31 33 33 31 30 28 28 27
71 71 69 67 64 59 55 52 50 48 47 45 41 39 33 32 37 35 35 41 41 43 43 42 44 45 44 44 45 47 46 43 42 42 41 42 35 34 36 36 36 33 34 32 31
69 71 73 72 69 66 62 58 58 56 55 51 47 44 38 34 34 34 36 36 42 45 44 45 44 44 45 46 43 42 45 45 44 46 47 46 39 39 40 39 39 36 36 36 35
66 67 70 73 74 71 68 65 65 65 64 57 52 49 45 41 40 38 36 38 41 42 46 46 45 44 39 41 45 46 47 47 49 49 50 49 45 43 43 43 40 39 38 39 38
74 72 69 69 71 74 75 74 71 72 70 65 62 55 53 47 44 42 42 39 40 41 41 46 45 42 40 41 43 44 47 46 47 50 52 50 49 45 47 43 42 42 41 40 40
80 78 76 76 74 75 77 75 73 76 79 72 65 61 57 55 51 49 48 46 44 41 44 44 45 43 43 45 46 43 45 48 47 49 53 55 54 47 47 49 45 43 43 42 40
85 85 83 82 82 81 78 77 74 75 80 82 74 71 65 61 59 54 52 51 50 47 43 43 47 47 44 44 46 49 48 45 49 50 52 54 56 52 51 50 48 45 44 43 41
93 91 89 89 86 84 84 84 80 77 82 85 82 77 70 71 64 60 55 55 54 51 48 45 43 43 47 45 44 47 47 47 47 51 55 54 57 53 51 51 50 47 45 43 44
101 99 96 94 93 91 89 87 86 85 90 88 89 83 79 75 74 70 63 61 60 57 56 54 53 49 44 44 46 47 48 51 52 50 55 54 56 56 50 48 49 49 47 47 44
103 102 101 98 96 93 92 91 89 95 94 94 93 90 87 82 76 75 70 67 64 60 57 55 54 51 49 47 47 46 50 53 55 58 55 53 56 57 52 46 44 49 47 46 45
107 105 103 100 96 91 86 86 85 105 100 98 97 94 91 87 82 81 77 75 68 62 64 62 62 57 52 49 45 42 42 48 53 56 55 59 57 54 53 50 43 38 43 49 44
76 93 102 102 98 92 85 75 85 105 101 98 98 99 96 93 88 89 86 80 75 70 64 64 63 63 59 56 50 47 48 43 47 49 55 57 52 57 52 49 46 45 43 39 41
52 54 79 83 89 86 76 84 96 106 105 103 97 99 101 97 95 92 90 87 82 78 70 66 64 61 61 60 57 55 49 47 48 49 49 48 49 49 51 54 51 45 43 43 43
58 57 52 56 52 65 77 74 93 101 101 100 98 93 96 95 95 96 97 91 88 82 74 69 71 71 68 66 62 57 56 54 52 50 48 49 50 43 46 48 55 54 44 42 43
59 64 45 57 70 77 83 80 87 100 96 92 95 99 98 91 95 92 98 99 93 84 81 74 68 72 70 65 62 61 57 56 56 55 52 48 48 45 44 40 42 50 40 33 39
50 48 54 62 74 81 81 85 75 86 89 95 95 97 94 94 84 81 91 94 91 92 84 77 69 70 71 70 70 71 64 62 58 55 56 51 44 35 37 40 42 42 42 37 30
38 44 49 54 67 71 75 78 80 66 73 70 79 83 82 90 81 80 80 89 91 87 84 70 65 72 78 83 76 76 68 61 59 58 56 54 45 42 39 37 36 41 41 37 33
38 37 42 51 52 63 66 72 83 86 69 75 67 78 76 76 59 67 80 89 82 68 61 58 60 70 86 84 70 72 65 61 63 58 57 54 49 44 45 43 46 42 42 47 37
42 40 35 46 44 48 48 70 82 76 79 83 78 80 86 75 66 61 54 65 77 59 56 52 58 60 78 79 73 77 75 66 62 60 56 53 55 48 44 44 39 38 35 43 44
38 42 43 37 47 49 50 52 68 75 82 73 76 78 75 70 66 54 62 58 61 63 61 59 59 54 59 67 69 77 79 78 72 65 60 59 62 39 41 41 42 45 38 36 45
Wind_Direction
270 259 253 253 247 244 252 251 250 238 232 235 220 212 217 219 220 222 225 226 225 219 219 218 221 220 221 223 224 226 223 229 230 234 235 231 222 212 207 204 201 195 186 174 164
266 264 261 257 249 248 249 250 251 244 235 231 230 218 213 216 220 222 223 226 227 227 224 225 223 224 222 223 226 228 222 228 232 234 235 231 226 217 210 211 209 205 202 188 180
257 260 261 257 257 254 249 245 246 247 248 236 229 226 216 216 218 223 225 224 226 229 231 229 228 228 227 225 227 229 223 228 229 234 234 233 228 223 216 217 217 217 216 207 198
258 257 256 259 257 258 251 243 240 242 250 246 233 228 226 220 225 222 225 225 222 227 228 232 233 232 231 231 230 229 227 229 232 232 234 234 229 228 223 224 223 227 224 220 215
261 257 254 249 255 253 255 253 246 244 246 245 243 234 230 234 231 222 223 227 227 224 228 229 231 234 235 233 233 231 231 230 234 235 234 235 232 229 229 230 226 233 228 229 227
260 261 259 256 250 252 252 250 252 250 246 245 240 242 243 235 232 229 226 227 230 227 227 230 230 231 234 235 237 236 235 233 234 237 236 234 234 227 231 232 225 234 232 232 231
259 258 258 256 251 250 249 251 251 249 249 247 244 240 244 247 236 235 237 232 231 233 230 230 232 233 233 235 237 238 240 238 234 235 236 238 234 226 231 235 227 232 232 231 231
254 256 257 257 256 253 252 249 248 249 248 246 247 243 239 240 243 243 237 237 236 232 232 231 232 235 234 236 236 236 238 242 239 239 237 237 230 233 233 234 232 230 232 230 232
254 254 254 255 255 254 252 250 249 249 248 247 245 245 243 242 243 244 244 241 238 236 235 231 233 234 235 235 237 236 237 239 242 241 240 239 230 237 237 235 235 229 235 234 235
250 252 254 254 254 255 252 250 248 247 247 247 244 246 244 244 249 248 245 243 244 243 240 238 234 235 237 238 240 243 241 238 239 238 240 240 235 236 240 237 237 233 233 237 237
250 247 249 252 254 253 253 251 250 249 252 250 248 244 241 239 240 243 245 244 244 244 242 242 240 235 242 242 240 239 239 238 237 239 241 243 239 236 238 241 241 240 238 237 240
252 252 248 248 250 253 251 251 251 254 253 249 249 245 247 243 242 244 247 249 247 245 244 243 242 245 244 244 244 244 243 243 241 241 242 241 243 238 241 241 242 244 241 240 241
253 253 253 251 247 246 251 250 250 252 253 251 249 248 245 243 242 242 245 246 247 247 245 245 245 242 242 245 245 247 247 246 246 242 242 241 241 239 240 244 242 243 247 245 245
248 249 250 250 249 248 247 249 249 250 252 251 250 250 247 247 245 242 243 244 245 246 248 247 246 246 244 245 249 250 250 255 250 247 244 244 243 238 239 243 246 245 246 250 248
245 245 245 247 248 248 250 249 248 248 248 247 247 248 246 251 249 241 239 244 245 247 248 251 250 251 248 248 250 252 251 250 253 250 246 245 246 240 238 241 245 247 248 246 249
244 243 242 242 244 245 246 247 248 246 244 246 244 245 248 248 249 247 235 237 240 243 244 244 245 245 248 248 249 250 252 250 248 253 250 246 248 241 241 238 244 247 248 249 248
243 243 241 242 241 242 245 245 246 244 239 243 244 247 247 247 247 249 249 245 245 245 248 248 250 250 250 250 250 251 250 251 251 247 248 254 249 245 247 244 242 247 248 249 250
242 242 240 239 240 241 243 245 245 239 238 243 245 244 246 247 247 247 248 249 247 242 242 244 247 248 251 255 259 259 259 257 258 259 255 251 251 245 248 252 249 249 251 248 249
244 245 243 240 239 240 241 235 240 241 240 243 245 246 244 246 248 247 248 248 251 253 251 253 249 252 250 247 247 251 252 256 257 259 263 261 254 250 254 256 250 247 247 249 249
231 234 239 242 242 242 236 242 243 239 240 240 242 244 246 245 248 248 248 247 249 248 248 248 249 247 248 247 247 249 249 249 250 251 256 260 260 256 255 255 260 255 247 249 248
227 229 230 223 221 216 215 227 242 239 239 242 244 243 243 244 245 247 246 245 248 250 250 249 253 253 249 245 243 245 247 250 254 257 263 263 256 259 260 256 257 259 255 245 247
228 232 219 209 210 209 213 217 235 238 237 241 245 245 243 244 245 243 244 245 247 248 248 249 247 249 253 249 243 242 244 245 247 251 254 263 260 266 268 267 262 255 255 253 243
233 240 223 217 220 214 214 213 218 234 236 236 238 242 244 245 243 247 243 244 247 249 247 245 237 239 242 243 245 246 240 242 243 244 247 250 255 261 268 270 265 259 255 250 243
236 228 232 231 227 222 220 220 214 216 223 232 236 238 241 243 241 239 239 240 242 246 249 247 239 241 248 254 254 251 250 242 243 246 256 257 263 265 264 263 269 260 255 246 247
226 235 232 229 235 228 223 218 218 218 217 222 224 223 230 238 238 236 241 241 243 243 246 245 242 244 247 246 244 244 243 243 242 245 246 255 255 252 257 260 262 265 256 250 245
217 228 233 236 233 231 232 225 222 222 217 223 227 218 222 232 233 235 237 239 241 232 234 234 247 247 246 245 236 243 243 235 238 238 238 240 246 250 251 257 264 266 267 249 238
228 231 236 243 229 235 230 232 229 226 222 226 223 235 228 228 231 232 229 229 230 229 230 231 237 239 245 244 236 230 238 242 239 237 238 239 253 248 254 257 259 261 267 255 236
Height
5736 5736 5737 5738 5739 5740 5742 5743 5744 5746 5748 5752 5753 5755 5758 5762 5765 5768 5773 5777 5781 5784 5788 5791 5794 5797 5800 5804 5806 5808 5813 5813 5814 5815 5817 5819 5819 5820 5821 5823 5824 5825 5826 5826 5827
5731 5732 5731 5732 5733 5734 5735 5736 5737 5739 5741 5744 5748 5749 5752 5755 5759 5763 5768 5771 5774 5778 5782 5786 5790 5792 5796 5799 5802 5804 5809 5809 5811 5812 5814 5816 5817 5818 5819 5821 5822 5823 5825 5825 5826
5726 5727 5726 5727 5727 5727 5729 5730 5732 5733 5734 5736 5740 5744 5745 5749 5753 5757 5761 5764 5769 5772 5776 5780 5784 5787 5791 5793 5797 5800 5805 5805 5806 5809 5811 5812 5814 5815 5816 5818 5820 5822 5823 5824 5825
5716 5718 5720 5721 5721 5721 5723 5724 5725 5727 5728 5730 5732 5737 5740 5743 5748 5750 5754 5758 5761 5765 5769 5773 5777 5781 5785 5788 5791 5795 5797 5800 5802 5804 5807 5809 5811 5812 5814 5815 5818 5819 5821 5822 5823
5705 5709 5712 5714 5714 5716 5717 5718 5718 5719 5721 5724 5725 5727 5732 5737 5740 5744 5747 5751 5754 5757 5762 5765 5769 5773 5777 5781 5785 5788 5792 5794 5797 5800 5802 5805 5807 5808 5811 5811 5815 5816 5819 5820 5821
5695 5697 5698 5701 5705 5707 5709 5711 5711 5712 5714 5716 5718 5720 5723 5729 5732 5736 5740 5743 5747 5750 5753 5757 5761 5765 5769 5774 5778 5784 5786 5789 5791 5795 5798 5800 5802 5806 5805 5806 5810 5812 5815 5817 5819
5681 5684 5687 5690 5694 5697 5700 5701 5702 5704 5707 5708 5710 5712 5717 5721 5723 5727 5732 5735 5739 5742 5745 5749 5753 5756 5762 5765 5770 5776 5780 5782 5786 5787 5792 5795 5798 5803 5797 5803 5806 5807 5811 5813 5815
5668 5670 5673 5677 5679 5683 5687 5691 5693 5694 5697 5700 5701 5704 5709 5712 5715 5719 5723 5726 5730 5734 5737 5740 5744 5748 5752 5758 5762 5766 5771 5774 5781 5782 5785 5787 5795 5795 5795 5797 5800 5802 5805 5808 5810
5651 5655 5658 5661 5665 5669 5673 5677 5681 5684 5686 5689 5693 5696 5701 5706 5707 5710 5713 5718 5721 5725 5729 5732 5736 5740 5744 5749 5753 5757 5761 5767 5772 5775 5777 5778 5787 5788 5789 5792 5793 5797 5799 5802 5804
5638 5641 5642 5646 5649 5653 5659 5664 5666 5671 5673 5677 5681 5688 5695 5698 5698 5701 5705 5709 5713 5717 5720 5724 5727 5732 5736 5740 5746 5751 5754 5758 5761 5764 5766 5769 5779 5780 5782 5785 5787 5791 5793 5795 5797
5620 5624 5627 5629 5633 5638 5643 5648 5651 5653 5655 5665 5672 5677 5681 5687 5690 5693 5695 5698 5702 5706 5710 5715 5718 5725 5730 5731 5733 5738 5742 5747 5750 5754 5757 5762 5768 5772 5774 5777 5782 5784 5787 5789 5791
5602 5604 5610 5615 5618 5619 5624 5629 5632 5635 5640 5647 5653 5664 5666 5677 5680 5684 5688 5691 5693 5697 5699 5705 5712 5716 5719 5722 5726 5731 5735 5739 5742 5744 5747 5753 5759 5766 5767 5772 5775 5777 5780 5782 5784
5581 5585 5589 5594 5599 5604 5606 5612 5616 5617 5619 5629 5639 5646 5656 5662 5668 5673 5677 5679 5684 5687 5691 5695 5702 5704 5709 5712 5717 5721 5725 5728 5731 5734 5737 5740 5746 5757 5761 5761 5766 5770 5772 5776 5779
5559 5563 5568 5572 5579 5585 5591 5593 5599 5600 5599 5608 5622 5626 5636 5645 5651 5660 5665 5668 5672 5678 5683 5684 5689 5695 5698 5703 5708 5711 5716 5719 5721 5723 5727 5731 5733 5744 5751 5754 5758 5763 5766 5769 5771
5532 5539 5546 5548 5557 5564 5569 5573 5576 5582 5580 5594 5602 5612 5623 5622 5636 5646 5654 5657 5662 5668 5674 5678 5681 5685 5689 5695 5697 5701 5705 5708 5710 5713 5716 5723 5723 5735 5740 5747 5750 5753 5758 5761 5763
5500 5510 5518 5527 5532 5539 5543 5549 5548 5556 5560 5574 5584 5596 5602 5612 5615 5620 5635 5640 5647 5654 5660 5664 5667 5672 5681 5683 5688 5690 5694 5697 5699 5703 5705 5714 5715 5723 5731 5738 5742 5744 5749 5752 5755
5467 5477 5487 5497 5512 5516 5517 5519 5516 5521 5558 5559 5569 5576 5582 5592 5599 5605 5615 5624 5634 5642 5649 5655 5659 5666 5670 5673 5676 5679 5683 5684 5688 5691 5699 5699 5704 5714 5721 5729 5733 5735 5739 5743 5747
5429 5444 5455 5469 5482 5490 5490 5485 5479 5516 5536 5547 5548 5553 5561 5571 5582 5589 5597 5607 5617 5628 5632 5639 5643 5650 5659 5664 5671 5674 5675 5678 5678 5681 5690 5690 5694 5707 5711 5715 5724 5727 5728 5733 5736
5402 5411 5423 5440 5454 5463 5463 5452 5460 5503 5523 5529 5524 5525 5545 5554 5565 5567 5578 5594 5604 5615 5621 5624 5632 5637 5644 5650 5658 5661 5662 5671 5670 5673 5675 5681 5692 5697 5701 5704 5712 5716 5719 5722 5725
5380 5387 5398 5418 5428 5434 5431 5428 5449 5481 5493 5494 5497 5511 5522 5537 5539 5549 5560 5580 5589 5597 5604 5609 5612 5620 5628 5635 5642 5647 5656 5657 5659 5661 5662 5672 5678 5684 5692 5695 5699 5705 5711 5714 5717
5363 5365 5382 5395 5403 5404 5403 5413 5432 5460 5470 5472 5479 5493 5502 5512 5523 5531 5544 5566 5570 5583 5588 5598 5598 5603 5609 5618 5628 5636 5641 5647 5651 5656 5658 5663 5666 5675 5681 5685 5689 5692 5698 5703 5706
5347 5346 5372 5376 5375 5377 5385 5400 5412 5430 5446 5451 5456 5465 5482 5498 5501 5514 5527 5540 5550 5562 5563 5580 5583 5583 5595 5603 5615 5622 5632 5634 5636 5644 5647 5653 5660 5668 5672 5676 5680 5681 5687 5692 5697
5333 5341 5351 5355 5350 5359 5373 5382 5394 5406 5418 5428 5436 5448 5462 5473 5486 5494 5510 5524 5529 5534 5544 5561 5555 5567 5571 5583 5595 5599 5611 5618 5627 5628 5634 5642 5656 5664 5665 5666 5668 5672 5677 5683 5687
5327 5330 5334 5336 5342 5350 5359 5367 5380 5389 5396 5407 5420 5435 5444 5449 5462 5476 5491 5503 5511 5518 5527 5533 5540 5548 5557 5580 5584 5587 5600 5607 5614 5618 5631 5634 5649 5652 5655 5658 5659 5662 5668 5674 5680
5316 5317 5322 5325 5331 5338 5348 5357 5363 5370 5379 5391 5400 5412 5425 5433 5443 5454 5471 5487 5497 5509 5513 5516 5517 5530 5546 5561 5559 5568 5579 5590 5595 5610 5612 5628 5634 5647 5647 5647 5648 5652 5658 5664 5671
5307 5310 5316 5318 5324 5328 5334 5340 5348 5357 5366 5373 5381 5397 5409 5413 5426 5444 5455 5468 5480 5493 5499 5506 5504 5513 5519 5537 5543 5546 5558 5571 5582 5595 5599 5611 5618 5633 5636 5638 5641 5643 5648 5653 5660
5300 5303 5305 5309 5314 5317 5324 5331 5339 5350 5355 5362 5374 5385 5393 5404 5421 5430 5442 5454 5464 5474 5485 5492 5495 5500 5500 5518 5524 5518 5536 5555 5570 5581 5590 5594 5615 5630 5628 5631 5630 5633 5639 5644 5648